| time (UTC) | temp C | wind direction | speed KPH | gust KPH | rain 1hr cm | rain 24hr cm | rain mn cm | humidity % | barometer mb |
| 20260504044543 | 7 | 0 | 0.0 | 0.0 | 0.00 | 0.00 | 0.00 | 84 | 1018.6 |
| 20260504043036 | 7 | 0 | 0.0 | 0.0 | 0.00 | 0.00 | 0.00 | 84 | 1018.6 |
| 20260504041536 | 8 | 0 | 0.0 | 0.0 | 0.00 | 0.00 | 0.00 | 84 | 1018.7 |
| 20260504040044 | 8 | 0 | 0.0 | 0.0 | 0.00 | 0.00 | 0.00 | 84 | 1018.4 |
| 20260504034530 | 8 | 0 | 0.0 | 0.0 | 0.00 | 0.00 | 0.00 | 83 | 1018.2 |
| 20260504033030 | 8 | 0 | 0.0 | 0.0 | 0.00 | 0.00 | 0.00 | 83 | 1018.1 |
| 20260504031531 | 9 | 0 | 0.0 | 0.0 | 0.00 | 0.00 | 0.00 | 83 | 1018.1 |
| 20260504030032 | 9 | 0 | 0.0 | 0.0 | 0.00 | 0.00 | 0.00 | 82 | 1017.9 |
| 20260504024530 | 10 | 0 | 0.0 | 0.0 | 0.00 | 0.00 | 0.00 | 82 | 1017.7 |
| 20260504023030 | 10 | 0 | 0.0 | 0.0 | 0.00 | 0.00 | 0.00 | 81 | 1017.8 |
| 20260504021530 | 10 | 0 | 0.0 | 0.0 | 0.00 | 0.00 | 0.00 | 81 | 1017.6 |
| 20260504020032 | 10 | 0 | 0.0 | 0.0 | 0.00 | 0.00 | 0.00 | 80 | 1017.6 |
| 20260504014534 | 11 | 0 | 0.0 | 0.0 | 0.00 | 0.00 | 0.00 | 79 | 1017.5 |
| 20260504013045 | 11 | 0 | 0.0 | 0.0 | 0.00 | 0.00 | 0.00 | 77 | 1017.5 |
| 20260504011531 | 11 | 0 | 0.0 | 0.0 | 0.00 | 0.00 | 0.00 | 75 | 1017.4 |
| 20260504010035 | 12 | 0 | 0.0 | 0.0 | 0.00 | 0.00 | 0.00 | 72 | 1017.4 |
| 20260504004532 | 12 | 0 | 0.0 | 0.0 | 0.00 | 0.00 | 0.00 | 69 | 1017.3 |
| 20260504003032 | 13 | 0 | 0.0 | 0.0 | 0.00 | 0.00 | 0.00 | 66 | 1017.1 |
| 20260504001530 | 14 | 0 | 0.0 | 0.0 | 0.00 | 0.00 | 0.00 | 62 | 1017.2 |
| 20260504000032 | 15 | 0 | 0.0 | 0.0 | 0.00 | 0.00 | 0.00 | 57 | 1017.1 |
| 20260503234532 | 16 | 0 | 0.0 | 0.0 | 0.00 | 0.00 | 0.00 | 53 | 1017.3 |
| 20260503233035 | 17 | 0 | 0.0 | 0.0 | 0.00 | 0.00 | 0.00 | 50 | 1017.4 |
| 20260503231534 | 18 | 0 | 0.0 | 6.4 | 0.00 | 0.00 | 0.00 | 44 | 1017.5 |
| 20260503230032 | 18 | 0 | 0.0 | 4.8 | 0.00 | 0.00 | 0.00 | 43 | 1017.6 |
| 20260503224531 | 20 | 0 | 1.6 | 4.8 | 0.00 | 0.00 | 0.00 | 36 | 1017.8 |
| 20260503223031 | 20 | 299 | 0.0 | 6.4 | 0.00 | 0.00 | 0.00 | 40 | 1017.8 |
| 20260503221538 | 20 | 151 | 0.0 | 8.0 | 0.00 | 0.00 | 0.00 | 39 | 1017.8 |
| 20260503220032 | 20 | 242 | 4.8 | 9.7 | 0.00 | 0.00 | 0.00 | 36 | 1018.0 |
| 20260503214534 | 19 | 0 | 0.0 | 11.3 | 0.00 | 0.00 | 0.00 | 38 | 1018.0 |
| 20260503213039 | 20 | 276 | 3.2 | 9.7 | 0.00 | 0.00 | 0.00 | 37 | 1018.2 |
| 20260503211535 | 20 | 0 | 3.2 | 9.7 | 0.00 | 0.00 | 0.00 | 38 | 1018.3 |
| 20260503210030 | 19 | 235 | 4.8 | 11.3 | 0.00 | 0.00 | 0.00 | 38 | 1018.4 |
| 20260503204532 | 19 | 256 | 4.8 | 12.9 | 0.00 | 0.00 | 0.00 | 36 | 1018.7 |
| 20260503203034 | 19 | 231 | 3.2 | 9.7 | 0.00 | 0.00 | 0.00 | 39 | 1019.0 |
| 20260503201535 | 18 | 269 | 4.8 | 8.0 | 0.00 | 0.00 | 0.00 | 41 | 1019.3 |
| 20260503200033 | 18 | 266 | 1.6 | 14.5 | 0.00 | 0.00 | 0.00 | 40 | 1019.4 |
| 20260503194532 | 17 | 0 | 3.2 | 11.3 | 0.00 | 0.00 | 0.00 | 42 | 1019.6 |
| 20260503193030 | 17 | 272 | 1.6 | 8.0 | 0.00 | 0.00 | 0.00 | 40 | 1019.8 |
| 20260503191530 | 17 | 241 | 4.8 | 9.7 | 0.00 | 0.00 | 0.00 | 39 | 1019.8 |
| 20260503190045 | 17 | 203 | 1.6 | 9.7 | 0.00 | 0.00 | 0.00 | 44 | 1019.9 |
| 20260503184531 | 17 | 161 | 3.2 | 12.9 | 0.00 | 0.00 | 0.00 | 44 | 1020.2 |
| 20260503183042 | 16 | 259 | 6.4 | 9.7 | 0.00 | 0.00 | 0.00 | 45 | 1020.4 |
| 20260503181536 | 16 | 263 | 3.2 | 11.3 | 0.00 | 0.00 | 0.00 | 46 | 1020.8 |
| 20260503180039 | 16 | 165 | 0.0 | 9.7 | 0.00 | 0.00 | 0.00 | 44 | 1020.9 |
| 20260503174535 | 15 | 267 | 4.8 | 9.7 | 0.00 | 0.00 | 0.00 | 46 | 1021.0 |
| 20260503173034 | 15 | 269 | 3.2 | 8.0 | 0.00 | 0.00 | 0.00 | 48 | 1021.4 |
| 20260503171542 | 16 | 225 | 1.6 | 8.0 | 0.00 | 0.00 | 0.00 | 44 | 1021.6 |
| 20260503081540 | 7 | 0 | 0.0 | 0.0 | 0.00 | 0.00 | 0.00 | 84 | 1019.8 |
| 20260503071535 | 7 | 0 | 0.0 | 0.0 | 0.00 | 0.00 | 0.00 | 84 | 1019.3 |
| 20260503054541 | 8 | 0 | 0.0 | 0.0 | 0.00 | 0.00 | 0.00 | 81 | 1018.9 |